Hourly Weather Kraczynki

Today, 27 October, Tuesday

Time Temperature Precipitation Wind Pressure Humidity
00:00 +12°C° 0 mm 3 mps 742 mmHg 84%
01:00 +13°C° 0 mm 2 mps 743 mmHg 86%
02:00 +12°C° 0 mm 2 mps 743 mmHg 88%
03:00 +12°C° 0 mm 2 mps 743 mmHg 89%
04:00 +12°C° 0 mm 1 mps 743 mmHg 90%
05:00 +12°C° 0 mm 1 mps 744 mmHg 90%
06:00 +12°C° 0 mm 1 mps 744 mmHg 90%
07:00 +12°C° 0 mm 1 mps 744 mmHg 90%
08:00 +12°C° 0 mm 2 mps 745 mmHg 87%
09:00 +12°C° 0 mm 2 mps 745 mmHg 84%
10:00 +12°C° 0 mm 3 mps 745 mmHg 81%
11:00 +13°C° 0 mm 2 mps 745 mmHg 80%
12:00 +13°C° 0 mm 2 mps 746 mmHg 79%
13:00 +12°C° 0 mm 2 mps 746 mmHg 78%
14:00 +12°C° 0 mm 2 mps 746 mmHg 79%
15:00 +12°C° 0 mm 1 mps 746 mmHg 80%
16:00 +12°C° 0 mm 1 mps 746 mmHg 81%
17:00 +11°C° 0.1 mm 1 mps 746 mmHg 82%
18:00 +10°C° 0.1 mm 2 mps 747 mmHg 83%
19:00 +10°C° 0.1 mm 2 mps 747 mmHg 84%
20:00 +10°C° 0.2 mm 2 mps 747 mmHg 85%
21:00 +10°C° 0.2 mm 2 mps 748 mmHg 86%
22:00 +9°C° 0.2 mm 2 mps 748 mmHg 87%
23:00 +9°C° 0 mm 2 mps 748 mmHg 87%

Tomorrow, 28 October, Wednesday

Time Temperature Precipitation Wind Pressure Humidity
00:00 +9°C° 0 mm 2 mps 748 mmHg 88%
01:00 +8°C° 0 mm 2 mps 748 mmHg 88%
02:00 +8°C° 0 mm 2 mps 748 mmHg 87%
03:00 +8°C° 0 mm 3 mps 748 mmHg 86%
04:00 +7°C° 0 mm 3 mps 748 mmHg 85%
05:00 +7°C° 0 mm 3 mps 748 mmHg 86%
06:00 +7°C° 0 mm 3 mps 749 mmHg 87%
07:00 +7°C° 0 mm 3 mps 749 mmHg 87%
08:00 +8°C° 0 mm 4 mps 749 mmHg 81%
09:00 +10°C° 0 mm 4 mps 749 mmHg 74%
10:00 +12°C° 0 mm 5 mps 749 mmHg 67%
11:00 +13°C° 0 mm 5 mps 749 mmHg 61%
12:00 +14°C° 0 mm 5 mps 749 mmHg 55%
13:00 +15°C° 0 mm 5 mps 749 mmHg 49%
14:00 +14°C° 0 mm 4 mps 749 mmHg 51%
15:00 +13°C° 0 mm 4 mps 749 mmHg 54%
16:00 +13°C° 0 mm 3 mps 749 mmHg 57%
17:00 +12°C° 0 mm 3 mps 749 mmHg 59%
18:00 +12°C° 0 mm 4 mps 749 mmHg 61%
19:00 +12°C° 0 mm 4 mps 749 mmHg 63%
20:00 +11°C° 0 mm 4 mps 749 mmHg 67%
21:00 +10°C° 0 mm 4 mps 750 mmHg 72%
22:00 +10°C° 0 mm 4 mps 750 mmHg 77%
23:00 +8°C° 0 mm 4 mps 750 mmHg 78%

Day after tomorrow, 29 October, Thursday

Time Temperature Precipitation Wind Pressure Humidity
00:00 +9°C° 0 mm 3 mps 750 mmHg 80%
01:00 +8°C° 0 mm 3 mps 750 mmHg 82%
02:00 +8°C° 0 mm 3 mps 750 mmHg 83%
03:00 +8°C° 0 mm 3 mps 749 mmHg 85%
04:00 +8°C° 0 mm 3 mps 749 mmHg 87%
05:00 +8°C° 0 mm 3 mps 749 mmHg 86%
06:00 +8°C° 0 mm 3 mps 749 mmHg 85%
07:00 +7°C° 0 mm 4 mps 750 mmHg 84%
08:00 +8°C° 0 mm 4 mps 749 mmHg 80%
09:00 +10°C° 0 mm 5 mps 749 mmHg 75%
10:00 +12°C° 0 mm 5 mps 749 mmHg 71%
11:00 +12°C° 0 mm 5 mps 749 mmHg 72%
12:00 +10°C° 0 mm 5 mps 749 mmHg 73%
13:00 +10°C° 0 mm 5 mps 749 mmHg 73%
14:00 +10°C° 0.3 mm 5 mps 749 mmHg 77%
15:00 +10°C° 0.3 mm 5 mps 749 mmHg 81%
16:00 +9°C° 0.3 mm 5 mps 749 mmHg 84%
17:00 +9°C° 0.1 mm 5 mps 749 mmHg 85%
18:00 +8°C° 0.1 mm 4 mps 750 mmHg 85%
19:00 +8°C° 0.1 mm 4 mps 750 mmHg 85%
20:00 +7°C° 0 mm 4 mps 750 mmHg 84%
21:00 +7°C° 0 mm 5 mps 751 mmHg 83%
22:00 +7°C° 0 mm 5 mps 751 mmHg 81%
23:00 +6°C° 0 mm 5 mps 752 mmHg 83%

30 October, Friday

Time Temperature Precipitation Wind Pressure Humidity
00:00 +6°C° 0 mm 4 mps 752 mmHg 85%
01:00 +5°C° 0 mm 4 mps 752 mmHg 87%
02:00 +5°C° 0 mm 4 mps 753 mmHg 88%
03:00 +5°C° 0 mm 4 mps 753 mmHg 90%
04:00 +4°C° 0 mm 4 mps 753 mmHg 91%
05:00 +4°C° 0 mm 4 mps 753 mmHg 91%
06:00 +4°C° 0 mm 4 mps 753 mmHg 92%
07:00 +4°C° 0 mm 4 mps 754 mmHg 92%
08:00 +5°C° 0 mm 4 mps 754 mmHg 88%
09:00 +6°C° 0 mm 4 mps 754 mmHg 83%
10:00 +7°C° 0 mm 4 mps 754 mmHg 79%
11:00 +7°C° 0 mm 4 mps 754 mmHg 75%
12:00 +8°C° 0 mm 4 mps 753 mmHg 71%
13:00 +10°C° 0 mm 4 mps 753 mmHg 67%
14:00 +9°C° 0 mm 3 mps 753 mmHg 69%
15:00 +9°C° 0 mm 3 mps 753 mmHg 72%
16:00 +9°C° 0 mm 2 mps 753 mmHg 75%
17:00 +9°C° 0.2 mm 2 mps 753 mmHg 78%
18:00 +8°C° 0.2 mm 2 mps 753 mmHg 81%
19:00 +8°C° 0.2 mm 2 mps 753 mmHg 85%
20:00 +8°C° 0 mm 2 mps 753 mmHg 85%
21:00 +8°C° 0 mm 2 mps 754 mmHg 86%
22:00 +7°C° 0 mm 2 mps 754 mmHg 87%
23:00 +8°C° 0 mm 1 mps 754 mmHg 88%

31 October, Saturday

Time Temperature Precipitation Wind Pressure Humidity
00:00 +8°C° 0 mm 1 mps 754 mmHg 89%
01:00 +7°C° 0 mm 1 mps 754 mmHg 90%
02:00 +7°C° 0 mm 1 mps 755 mmHg 91%
03:00 +6°C° 0 mm 2 mps 755 mmHg 91%
04:00 +5°C° 0 mm 2 mps 755 mmHg 92%
05:00 +5°C° 0 mm 2 mps 755 mmHg 91%
06:00 +5°C° 0 mm 2 mps 756 mmHg 90%
07:00 +5°C° 0 mm 2 mps 756 mmHg 90%
08:00 +6°C° 0 mm 2 mps 756 mmHg 83%
09:00 +7°C° 0 mm 2 mps 756 mmHg 76%
10:00 +9°C° 0 mm 3 mps 757 mmHg 70%
11:00 +9°C° 0 mm 3 mps 757 mmHg 66%
12:00 +10°C° 0 mm 2 mps 757 mmHg 62%
13:00 +12°C° 0 mm 2 mps 757 mmHg 59%
14:00 +10°C° 0 mm 2 mps 757 mmHg 61%
15:00 +10°C° 0 mm 2 mps 757 mmHg 64%
16:00 +9°C° 0 mm 2 mps 757 mmHg 67%
17:00 +8°C° 0 mm 2 mps 757 mmHg 69%
18:00 +8°C° 0 mm 2 mps 757 mmHg 71%
19:00 +7°C° 0 mm 3 mps 757 mmHg 74%
20:00 +7°C° 0 mm 3 mps 757 mmHg 76%
21:00 +5°C° 0 mm 3 mps 757 mmHg 78%
22:00 +5°C° 0 mm 3 mps 757 mmHg 80%
23:00 +5°C° 0 mm 3 mps 757 mmHg 80%

1 November, Sunday

Time Temperature Precipitation Wind Pressure Humidity
00:00 +4°C° 0 mm 3 mps 757 mmHg 81%
01:00 +4°C° 0 mm 3 mps 757 mmHg 82%
02:00 +4°C° 0 mm 3 mps 757 mmHg 82%
03:00 +4°C° 0 mm 3 mps 757 mmHg 83%
04:00 +3°C° 0 mm 3 mps 757 mmHg 83%
05:00 +3°C° 0 mm 3 mps 757 mmHg 83%
06:00 +3°C° 0 mm 3 mps 757 mmHg 84%
07:00 +3°C° 0 mm 4 mps 757 mmHg 84%
08:00 +4°C° 0 mm 4 mps 756 mmHg 78%
09:00 +6°C° 0 mm 4 mps 756 mmHg 73%
10:00 +7°C° 0 mm 4 mps 756 mmHg 67%
11:00 +8°C° 0 mm 4 mps 756 mmHg 65%
12:00 +10°C° 0 mm 4 mps 755 mmHg 64%
13:00 +11°C° 0 mm 4 mps 755 mmHg 63%
14:00 +11°C° 0 mm 3 mps 755 mmHg 67%
15:00 +10°C° 0 mm 3 mps 755 mmHg 71%
16:00 +9°C° 0 mm 3 mps 754 mmHg 75%
17:00 +9°C° 0 mm 3 mps 755 mmHg 78%
18:00 +8°C° 0 mm 3 mps 755 mmHg 80%
19:00 +8°C° 0 mm 3 mps 755 mmHg 83%
20:00 +7°C° 0 mm 2 mps 755 mmHg 85%
21:00 +7°C° 0 mm 2 mps 755 mmHg 87%
22:00 +7°C° 0 mm 2 mps 755 mmHg 89%
23:00 +7°C° 0 mm 2 mps 755 mmHg 90%
Show more